Tracking 21076 objects as of 7-Aug-2020
HD Live streaming from Space Station
objects crossing your sky now

FREGAT DEB

Track FREGAT DEB now!
10-day predictions


NORAD ID: 45826
Int'l Code: 2011-037BL
Perigee: 940.2 km
Apogee: 4,882.8 km
Inclination: 51.9 °
Period: 148.3 minutes
Semi major axis: 9282 km
RCS: Unknown
Launch date: July 18, 2011
Source: Commonwealth of Independent States (former USSR) (CIS)
Launch site: TYURATAM MISSILE AND SPACE COMPLEX (TTMTR)

Note: This is SATELLITE DEBRIS
aabbcc
Your satellite tracking list
Your tracking list is empty




NASA's NSSDC Master Catalog

Two Line Element Set (TLE):
1 45826U 11037BL  20218.55304969 -.00049920  00000-0 -32224+0 0  9999
2 45826  51.8984 287.8046 2123678 100.2534 284.2860  9.70743043  6239
Source of the keplerian elements: AFSPC